{"data":{"norad_id":44061,"epoch":"2026-05-24T20:11:26.160864Z","epoch_age_seconds":81997,"freshness":"FRESH","line1":"1 44061U 19010E   26144.84127501  .00000023  00000+0  25930-4 0  9998","line2":"2 44061  87.8999 263.8353 0001738  98.3395 261.7932 13.15550564348351","mean_motion":13.15550564,"eccentricity":0.0001738,"inclination_deg":87.8999,"raan_deg":263.8353,"arg_perigee_deg":98.3395,"mean_anomaly_deg":261.7932,"bstar":2.593e-5,"rev_number":34835,"period_min":109.45987477833,"perigee_km":1200.4456446894,"apogee_km":1203.0804179403,"semimajor_km":7579.9000313149,"source":"CELESTRAK","updated_at":"2026-05-25T13:38:22.331732Z"}}